RH
64 64 63 65 67 69 71 73 73 70 73 73 73 73 74 76 79 34 29 18 20 54 49 9 7 8 8 10 8 7 9 8 7 7 10 23 28 26 26 36 36 37 38 40 44
64 64 63 62 62 63 63 64 67 68 69 72 73 74 74 79 44 24 25 51 57 61 12 9 7 6 8 9 9 10 10 8 5 6 8 26 24 29 36 36 41 41 42 39 38
70 66 67 67 66 69 68 65 66 67 69 71 73 74 76 68 32 9 60 60 56 49 10 7 5 6 8 8 9 9 9 6 5 7 10 25 22 25 30 37 38 47 50 43 39
63 63 63 66 65 66 66 65 67 68 68 69 71 73 75 47 21 12 58 69 63 19 10 7 7 8 9 9 8 10 7 6 6 9 15 19 18 28 29 34 33 49 44 44 44
64 65 66 67 64 65 65 66 67 68 69 69 70 71 58 28 17 10 55 66 21 19 8 8 8 9 9 7 9 10 8 7 10 14 14 15 19 24 38 36 42 52 48 51 49
65 63 64 66 66 66 66 67 69 72 72 72 70 72 53 32 6 10 17 28 10 11 6 6 7 7 8 7 8 9 8 10 15 17 17 20 24 32 58 52 55 54 54 53 50
65 66 64 66 65 67 68 71 74 75 76 76 73 56 45 21 7 10 16 11 8 8 7 6 6 7 9 9 7 10 10 14 17 16 22 22 38 37 71 54 55 54 53 53 55
64 63 64 65 67 68 71 79 78 77 78 77 75 57 36 9 8 8 14 11 9 8 8 6 6 9 8 9 11 15 16 20 16 22 24 24 33 50 59 62 67 65 61 59 61
62 63 64 69 72 74 77 80 78 77 74 71 62 49 23 19 8 6 11 13 11 10 9 5 9 11 11 15 17 16 17 16 16 20 26 26 20 41 51 60 70 75 70 69 70
64 63 63 68 72 74 78 78 67 77 58 36 26 40 22 7 4 4 8 11 11 8 9 10 11 12 14 17 18 16 14 14 19 22 22 27 21 36 44 54 68 72 71 65 62
64 62 62 67 71 75 66 36 40 54 42 32 21 19 10 9 11 11 5 12 9 10 10 11 13 16 16 14 10 10 12 11 11 19 23 24 20 35 37 42 52 58 58 54 49
61 63 64 69 73 75 56 39 44 46 54 29 23 22 13 15 18 8 6 15 14 13 9 12 16 10 9 10 12 11 11 13 10 18 24 18 19 24 33 38 40 44 43 41 39
61 63 66 74 75 60 40 48 35 46 76 32 23 21 18 14 17 9 8 12 13 13 11 12 11 9 10 11 13 13 13 14 16 25 24 20 20 25 28 32 34 37 34 33 36
62 67 73 73 62 42 40 42 40 63 58 34 27 22 21 16 16 10 7 11 11 13 11 11 8 9 9 11 12 16 12 12 13 25 28 20 24 20 25 32 35 36 35 33 34
67 72 73 72 57 40 38 38 46 76 94 14 22 20 20 17 7 8 8 9 12 12 12 13 11 10 10 12 13 14 11 12 12 21 21 16 24 16 20 28 33 35 34 33 32
72 72 70 48 47 40 36 48 64 87 87 24 22 27 21 19 14 7 9 9 9 11 11 10 7 9 10 10 10 11 13 16 16 20 36 17 20 22 18 24 25 28 31 32 30
75 70 60 46 53 45 50 54 79 89 20 26 29 24 22 21 15 11 10 14 14 19 19 12 10 8 9 10 9 12 17 31 36 41 40 16 20 24 15 18 21 24 26 28 29
76 72 56 43 46 54 54 54 89 36 28 24 22 20 23 19 18 13 13 14 11 11 13 17 19 11 9 11 11 13 18 30 39 34 26 18 27 20 15 16 17 18 20 25 28
72 42 42 49 56 55 51 97 68 39 29 31 23 24 21 22 21 17 14 13 12 11 17 17 15 8 8 9 9 16 21 16 23 22 25 18 21 18 16 17 17 18 19 22 27
45 41 41 51 56 62 52 73 39 33 28 28 33 29 33 40 27 22 16 12 13 11 11 15 20 9 9 10 9 12 13 30 30 71 40 23 22 28 24 22 18 16 18 18 23
44 38 42 47 53 52 96 60 41 33 31 33 35 37 41 53 39 32 20 14 17 12 12 13 19 16 11 14 13 12 17 22 24 26 40 35 26 18 21 20 20 18 17 18 19
38 71 38 43 64 60 73 52 55 51 43 42 33 32 43 43 51 34 31 34 34 33 26 15 20 25 15 11 10 9 15 20 65 64 44 48 42 15 16 16 18 16 15 16 18
46 38 32 39 90 84 50 47 40 41 45 50 47 50 42 52 62 50 58 42 42 38 39 23 29 33 23 16 11 14 12 15 21 30 49 72 50 16 19 19 18 17 16 17 21
48 98 65 35 33 44 49 44 43 34 42 37 55 49 46 42 45 51 56 47 47 42 67 50 32 27 32 22 15 17 13 15 20 40 40 37 27 20 19 18 17 17 18 19 24
53 70 61 90 57 37 35 34 38 36 34 36 63 43 51 67 57 62 56 46 46 56 44 35 36 26 18 16 13 12 13 12 16 19 31 26 21 16 16 17 15 16 20 21 25
92 73 52 39 34 33 36 39 40 31 34 35 49 39 40 60 78 67 51 52 78 60 56 49 48 28 46 16 14 16 13 13 13 13 16 17 18 12 12 12 13 17 21 23 26
40 40 62 46 30 30 39 40 39 34 32 29 33 36 43 60 40 38 36 40 51 85 75 63 75 49 41 20 18 30 20 14 13 12 13 19 16 11 12 12 15 18 21 23 25
Wind_Speed
17 18 18 17 17 18 19 19 19 20 19 19 19 19 19 18 20 21 17 11 11 6 5 14 16 16 16 17 18 12 16 16 23 15 7 18 15 13 7 14 9 3 6 19 20
17 17 18 18 18 18 18 19 20 21 21 21 20 19 19 19 20 22 13 9 2 2 15 17 19 18 17 18 15 16 15 22 20 18 10 19 16 13 11 13 11 9 18 21 20
18 17 17 19 19 19 20 19 20 21 22 21 21 20 19 21 12 9 11 12 10 8 22 16 16 18 21 17 20 19 20 20 19 7 9 19 15 13 15 13 15 12 19 20 19
20 20 20 20 21 21 21 21 21 22 21 21 21 20 20 11 6 10 3 8 11 13 20 14 15 19 20 22 18 18 23 22 7 5 6 14 17 15 8 2 18 17 20 18 17
20 21 21 22 23 23 23 24 24 23 22 21 19 17 13 9 15 3 0 12 16 16 21 19 19 19 21 20 19 20 15 12 4 6 16 15 16 14 10 14 21 18 17 15 14
21 21 22 22 23 24 25 25 26 26 24 21 17 14 12 14 3 5 3 14 17 19 19 19 15 17 16 17 20 14 20 11 9 14 11 12 10 8 13 19 19 20 18 17 17
22 23 24 24 25 26 27 28 28 25 23 18 14 11 15 21 2 1 8 14 14 18 16 15 15 14 11 17 15 9 15 13 14 15 11 16 12 13 16 17 19 18 17 16 16
24 24 24 25 26 27 28 29 27 22 17 14 12 14 11 8 15 12 10 10 9 12 10 11 7 14 15 9 8 16 16 15 18 17 12 16 21 23 17 17 16 15 13 13 15
25 25 26 25 25 27 29 30 25 7 7 7 11 16 13 6 12 16 15 16 12 9 10 7 11 14 14 14 17 18 17 21 20 18 13 21 15 26 21 17 16 13 14 14 13
25 26 27 25 25 27 31 29 7 5 8 11 7 9 11 11 7 11 16 15 15 13 12 13 12 15 14 17 19 21 23 23 17 19 18 20 16 21 21 18 17 16 15 15 16
26 27 27 26 27 28 22 14 6 10 11 14 2 16 1 1 5 12 19 18 18 16 16 20 17 20 23 23 22 18 22 23 23 19 20 21 19 19 18 18 19 18 18 18 19
27 27 28 29 28 26 18 7 8 7 14 18 22 20 17 5 7 15 20 21 20 19 21 16 22 20 20 20 22 22 19 23 17 21 20 22 24 22 18 18 19 20 21 20 18
27 27 29 28 29 15 8 6 8 10 7 8 12 17 17 17 12 17 23 25 23 24 25 19 16 21 21 19 20 21 18 21 15 13 13 19 22 17 20 17 18 19 18 19 20
27 28 27 26 17 11 3 6 9 4 8 9 7 4 8 8 11 18 22 24 16 25 24 21 17 21 19 22 19 18 17 18 17 13 15 23 15 21 20 18 20 20 21 19 20
27 29 26 14 11 7 8 10 10 2 5 5 8 5 1 13 3 22 16 23 22 20 21 20 20 17 22 18 18 16 16 18 17 17 17 24 17 13 24 22 22 23 22 20 20
29 29 21 4 4 6 10 10 3 5 5 1 2 1 9 13 16 4 20 23 20 19 21 21 15 16 20 17 18 20 15 14 12 13 17 21 20 18 19 25 25 23 23 22 22
30 23 13 8 9 12 8 5 5 4 5 4 6 5 8 9 14 12 20 23 23 23 23 21 20 14 15 22 21 22 15 11 13 14 12 20 18 14 15 20 26 25 24 24 22
29 21 5 4 8 8 7 9 4 6 5 12 11 15 13 2 13 20 15 19 26 24 15 17 21 23 20 22 22 24 21 13 19 16 15 16 17 17 20 3 15 20 24 24 23
29 3 5 8 9 8 10 4 3 6 10 13 16 9 7 4 8 14 22 19 24 27 24 20 21 24 17 19 22 19 24 23 13 18 14 17 14 1 8 14 14 18 21 23 24
9 6 11 12 9 8 6 5 3 6 10 11 14 6 11 13 5 9 16 17 19 26 22 20 12 19 23 18 24 23 19 19 16 11 17 16 23 15 14 15 19 17 18 18 24
5 5 10 14 9 4 2 3 7 13 13 9 10 8 9 9 14 9 5 8 5 19 23 22 9 16 18 23 26 21 20 19 17 13 14 13 12 11 15 20 19 20 20 18 20
6 4 10 10 6 5 5 6 3 9 9 7 8 12 9 7 10 8 5 13 16 16 16 24 10 15 26 22 23 23 24 25 11 20 10 10 7 5 8 11 13 20 18 18 18
5 5 7 8 5 5 8 7 6 10 9 9 9 10 11 9 6 7 9 17 16 13 12 10 18 14 18 18 22 26 28 23 24 11 19 12 7 6 5 6 8 14 18 16 17
5 5 5 6 4 9 8 7 9 5 6 8 5 6 12 12 7 8 9 8 19 11 21 7 13 22 16 18 18 22 23 26 23 16 17 17 16 14 12 13 10 12 14 16 20
6 2 2 5 6 10 7 5 12 11 8 10 2 10 10 6 14 5 7 13 10 12 14 7 17 22 24 23 18 22 23 24 26 27 21 18 23 18 18 16 13 12 15 17 19
4 6 7 11 9 9 3 11 12 13 14 11 9 14 14 10 8 15 15 11 5 11 13 11 12 20 20 23 27 19 22 25 26 25 25 25 20 20 18 17 15 14 17 19 21
5 3 3 10 8 8 10 11 13 14 8 10 15 14 14 12 17 18 17 15 11 6 10 9 10 12 17 24 23 25 19 23 26 25 24 23 21 18 18 18 16 16 17 20 21
Wind_Direction
355 351 347 344 341 337 334 335 331 324 323 323 325 326 321 319 301 264 248 245 217 127 266 238 211 210 224 228 225 236 253 240 238 236 237 137 183 178 132 147 172 168 148 139 145
356 352 346 343 337 333 328 324 321 317 317 317 319 320 320 320 298 273 253 146 169 123 226 219 204 203 211 215 202 227 232 239 248 234 231 150 170 181 175 173 148 166 110 134 152
353 348 345 342 338 333 329 326 321 316 314 314 314 315 317 314 284 248 53 147 180 214 231 222 221 207 220 215 205 216 242 233 253 277 175 166 185 170 193 184 164 160 142 146 151
348 345 341 336 332 329 324 322 319 315 310 308 309 311 313 287 256 77 66 200 184 209 227 219 226 209 219 210 213 230 224 254 239 184 221 163 201 172 212 239 135 137 152 154 150
347 344 342 337 334 329 325 320 315 310 305 301 299 306 305 229 249 35 0 176 184 209 205 211 211 209 214 220 214 213 228 224 269 167 224 197 190 183 125 90 113 138 151 142 137
345 343 338 336 332 328 323 318 313 307 298 290 285 290 259 249 277 298 206 173 185 202 205 211 213 216 227 229 221 202 246 182 204 204 203 173 169 131 90 118 131 149 149 155 151
345 343 339 334 333 329 323 319 311 303 293 279 264 252 253 238 178 264 202 189 189 204 199 211 229 226 234 225 219 261 203 199 196 191 175 201 135 215 143 152 151 154 157 154 140
344 339 336 334 332 328 323 318 311 303 286 265 236 220 256 212 237 234 211 208 205 213 236 205 228 251 243 220 192 212 213 194 193 167 172 202 193 129 148 152 146 146 151 150 158
342 339 335 332 330 326 323 316 307 303 277 209 188 216 251 116 217 212 207 204 188 202 216 208 208 216 215 190 199 206 204 208 168 186 163 211 230 134 152 159 154 159 159 166 167
342 337 334 333 331 328 323 302 277 260 208 204 268 202 245 233 176 205 197 217 191 182 181 200 201 208 205 205 203 195 223 200 183 186 191 203 221 152 162 163 161 168 176 177 183
340 338 334 333 331 326 321 294 223 197 205 252 201 241 273 330 220 222 188 201 195 188 198 194 203 206 200 214 232 202 207 231 210 165 210 209 204 161 173 173 168 179 179 186 187
340 337 335 330 326 319 298 18 40 340 294 276 253 259 269 306 274 212 184 195 199 198 206 188 212 206 221 214 228 243 216 219 205 154 197 215 213 158 176 189 182 182 183 182 176
337 336 333 325 319 296 335 33 350 349 262 276 233 239 234 225 237 203 188 199 197 203 204 203 204 221 214 211 218 234 237 217 193 154 212 234 214 172 169 191 190 183 189 179 176
336 333 327 326 283 342 20 353 353 5 276 135 181 211 212 225 234 246 187 203 193 211 211 220 216 206 212 221 208 215 224 230 199 171 212 224 222 209 170 200 194 190 194 184 179
335 330 323 323 307 321 356 334 340 285 283 39 127 61 161 214 24 188 203 212 218 211 214 206 229 200 218 213 196 226 194 226 211 191 231 195 237 224 183 194 197 196 194 190 185
333 331 324 243 265 323 329 314 295 244 245 130 37 233 197 207 247 193 192 217 223 223 224 222 212 197 226 215 212 225 193 218 218 218 228 235 202 228 206 197 196 197 196 195 189
331 331 313 296 334 324 308 254 248 253 356 22 2 308 295 249 205 211 195 195 209 211 212 208 214 219 215 214 212 212 188 196 202 211 226 223 218 217 240 200 191 201 197 196 195
329 317 235 11 338 314 266 239 253 332 342 343 308 292 259 345 216 204 207 209 212 213 213 209 218 200 204 225 200 206 199 206 200 213 210 223 225 232 218 255 194 209 200 196 193
314 300 8 6 326 300 260 253 262 354 2 330 305 282 210 185 290 202 217 217 208 221 224 205 227 190 207 218 226 199 214 216 216 238 226 210 203 271 215 210 210 208 207 196 183
311 295 33 344 321 282 270 286 12 354 323 319 299 349 319 357 280 228 204 224 233 213 230 250 259 210 189 205 228 217 209 212 237 224 220 231 199 206 208 231 206 211 206 196 184
276 302 20 338 296 290 8 334 346 340 335 316 332 316 330 344 323 298 295 100 342 240 221 238 228 215 184 200 208 208 205 220 230 237 229 227 243 171 182 207 223 210 197 204 189
317 13 10 327 31 13 4 344 324 337 323 320 291 276 293 327 297 279 317 41 9 316 281 219 230 242 200 207 224 213 217 213 217 225 215 234 259 118 211 206 213 212 211 194 197
354 316 41 352 42 358 332 331 343 344 342 9 336 337 316 309 300 307 340 355 8 328 3 245 223 232 238 207 215 228 209 219 220 206 232 230 234 156 193 215 198 208 193 186 178
9 342 347 342 36 327 353 336 334 29 324 347 327 353 328 300 269 278 329 333 336 360 319 232 256 227 233 215 212 219 221 213 222 214 209 230 215 165 192 192 179 201 180 184 176
354 9 34 319 347 328 12 331 336 359 335 324 227 349 348 308 315 320 338 350 325 13 328 282 245 239 234 255 226 218 222 220 224 220 220 211 228 219 195 204 196 188 173 178 179
47 350 337 284 304 317 12 1 324 346 327 310 328 328 318 307 350 320 331 333 307 327 337 331 257 243 238 235 250 252 223 222 227 228 223 226 230 217 214 210 201 172 179 178 183
27 349 290 301 338 327 16 335 312 316 321 326 326 307 303 344 320 303 291 280 255 296 317 321 329 261 240 231 238 242 239 215 228 227 227 224 226 234 221 202 178 181 184 183 185